Location: Colebrook
(42.0017°N, 73.0973°W)
Time: 06:35:23
(UTC-04:00)

ISS - Visible Passes

Search period start: 28 September 2021 00:00
Search period end: 08 October 2021 00:00
Orbit: 417 x 422 km, 51.6° (Epoch: 28 September)

Date Brightness Start Highest point End Pass type
(mag) Time Alt. Az. Time Alt. Az. Time Alt. Az.
28 Sep -1.6 19:43:55 10° NW 19:46:18 18° N 19:48:01 13° NE visible
28 Sep -0.6 21:20:26 10° NW 21:20:59 14° NW 21:20:59 14° NW visible
29 Sep -2.2 20:33:04 10° NW 20:35:21 29° N 20:35:21 29° N visible
30 Sep -2.2 19:45:39 10° NW 19:48:31 25° NNE 19:49:40 21° NE visible
30 Sep -0.4 21:22:13 10° WNW 21:22:38 13° WNW 21:22:38 13° WNW visible
01 Oct -1.9 18:58:08 10° NW 19:00:45 20° NNE 19:03:22 10° ENE visible
01 Oct -2.6 20:34:36 10° NW 20:36:56 41° NW 20:36:56 41° NW visible
02 Oct -3.4 19:46:59 10° NW 19:50:15 48° NNE 19:51:14 35° E visible
02 Oct -0.2 21:24:11 10° W 21:24:11 10° W 21:24:11 10° W visible
03 Oct -2.8 18:59:19 10° NW 19:02:25 33° NNE 19:05:30 10° E visible
03 Oct -2.1 20:36:05 10° WNW 20:38:30 32° WSW 20:38:30 32° WSW visible
04 Oct -3.5 19:48:07 10° WNW 19:51:28 64° SW 19:52:50 31° SSE visible
05 Oct -3.8 19:00:12 10° NW 19:03:34 76° NNE 19:06:55 10° ESE visible
05 Oct -1.0 20:38:14 10° W 20:39:56 13° SW 20:40:11 13° SW visible
06 Oct -1.5 19:49:26 10° W 19:52:07 22° SW 19:54:40 11° S visible
07 Oct -2.3 19:01:02 10° WNW 19:04:11 38° SW 19:07:19 10° SSE visible
